Regional Weather Roundup
Issued by NWS

Home | Current Version | Previous Version | Graphics & Text | Print | Product List | Glossary Off
Versions: 1 2 3 4 5 6 7 8 9 10 11 12 13 14 15 16 17 18 19 20 21 22 23 24 25 26 27 28 29 30 31 32 33 34 35 36 37 38 39 40 41 42 43 44 45 46 47 48 49 50

000
ASUS43 KTOP 220259
RWRKS

WEATHER ROUNDUP FOR KANSAS
NATIONAL WEATHER SERVICE GOODLAND KS
1000 PM CDT THU AUG 21 2014

NOTE:  "FAIR" INDICATES FEW OR NO CLOUDS BELOW 12,000 FEET WITH NO
SIGNIFICANT WEATHER AND/OR OBSTRUCTIONS TO VISIBILITY.

KSZ001>006-013>018-027>032-041>047-220400-
NORTHWEST KANSAS

CITY           SKY/WX    TMP DP  RH WIND       PRES   REMARKS
GOODLAND       CLEAR     74  53  48 E3        30.00R
HAYS           PTCLDY    84  64  51 E5        29.87R
HILL CITY      PTCLDY    82  67  60 N6        29.89R
RUSSELL        PTCLDY    92  64  39 S13G22    29.85R
$$

KSZ061>065-074>080-084>089-220400-
SOUTHWEST KANSAS

CITY           SKY/WX    TMP DP  RH WIND       PRES   REMARKS
DODGE CITY     MOCLDY    83  62  49 S9        29.91R
ELKHART          N/A     76  59  56 S7          N/A
GARDEN CITY    MOCLDY    83  60  45 S9        29.92R
GREAT BEND     PTCLDY    86  66  51 S13       29.86R
LIBERAL        CLOUDY    82  59  44 S9        29.93S
$$

KSZ066>073-081>083-090>101-220400-
SOUTHEAST KANSAS

CITY           SKY/WX    TMP DP  RH WIND       PRES   REMARKS
CHANUTE        CLEAR     84  71  65 S15       29.95R
COFFEYVILLE    CLEAR     84  71  65 S12       29.95R
HUTCHINSON     CLEAR     88  67  49 SE14      29.89R
NEWTON         CLEAR     84  64  51 S15G21    29.95R
PARSONS        CLEAR     84  70  62 S10       29.97R
WICHITA INTL   PTCLDY    86  69  56 S16       29.90R
WICHITA JABRA  CLEAR     86  68  54 S14       29.91R
WINFIELD       CLEAR     86  71  60 S14       29.94R
$$

KSZ007>012-019>026-033>040-048>060-102>105-220400-
NORTHEAST KANSAS

CITY           SKY/WX    TMP DP  RH WIND       PRES   REMARKS
CONCORDIA      CLOUDY    82  70  66 NW25G43   29.88R THUNDER
EMPORIA        CLEAR     86  72  62 S15       29.91R
LAWRENCE       CLEAR     89  72  56 S13       29.89R HX  96
MANHATTAN      CLEAR     90  68  48 S12G20    29.84F
OLATHE IND     CLEAR     85  72  65 S15       29.92R
OLATHE EXE     CLEAR     83  72  69 S9        29.91R
SALINA         PTCLDY    89  68  49 S21G28    29.84S
TOPEKA BILLARD CLEAR     90  73  57 S13       29.88R HX  98
TOPEKA FORBES  CLEAR     87  72  60 S13G18    29.89R
$$


USA.gov is the U.S. government's official web portal to all federal, state and local government web resources and services.